Regional Weather Roundup
Issued by NWS San Angelo, TX

Home | Current Version | Previous Version | Text Only | Print | Product List | Glossary On
Versions: 1 2 3 4 5 6 7 8 9 10 11 12 13 14 15 16 17 18 19 20 21 22 23 24 25 26 27 28 29 30 31 32 33 34 35 36 37 38 39 40 41 42 43 44 45 46 47 48 49 50
000
ASUS44 KSJT 061410
RWRSJT
WEST CENTRAL TEXAS REGIONAL WEATHER ROUNDUP
NATIONAL WEATHER SERVICE SAN ANGELO TX
800 AM CST FRI MAR 06 2015

NOTE: "FAIR" INDICATES FEW OR NO CLOUDS BELOW 12,000 FEET WITH NO
SIGNIFICANT WEATHER AND/OR OBSTRUCTIONS TO VISIBILITY.

TXZ049-054-064>066-071>073-076>078-098-099-113-114-127-128-139-140-
154-155-168>170-061500
...LOCATIONS ACROSS WEST CENTRAL TEXAS...

CITY           SKY/WX    TMP DP  RH WIND       PRES   REMARKS
SAN ANGELO     MOSUNNY   26  22  84 CALM      30.51R
ABILENE        SUNNY     29  19  66 S9        30.52R WCI  20
DYESS AFB      SUNNY     31  21  67 S3        30.50R
JUNCTION       MOSUNNY   22  19  89 CALM      30.53R
SWEETWATER     MOSUNNY   30  22  73 S7        30.51R WCI  23
BROWNWOOD      MOSUNNY   25  23  93 CALM      30.56R
COLEMAN        MOSUNNY   26  23  87 CALM      30.54R
SONORA         MOSUNNY   25  21  86 CALM      30.54R
OZONA          FAIR      23  19  86 CALM      30.52R
BRADY          SUNNY     28  18  64 SE3       30.51F
$$

TEXAS PANHANDLE/OKLAHOMA PANHANDLE

CITY           SKY/WX    TMP DP  RH WIND       PRES   REMARKS
AMARILLO       CLEAR     28  23  81 SW10      30.35S WCI  19
BORGER         CLEAR     30  22  72 SW9       30.35S WCI  22
CANADIAN       SUNNY     30  27  88 SW3       30.37S
DALHART        CLEAR     24  20  84 SW5       30.33R WCI  18
DUMAS          SUNNY     27  23  86 W12       30.33R WCI  16
GUYMON         NOT AVBL
HEREFORD       SUNNY     28  25  91 W9        30.36S WCI  19
PAMPA          SUNNY     29  24  84 SW10      30.35S WCI  19
PERRYTON         N/A     29  24  83 SW9       30.34R WCI  20
$$

SOUTHERN PANHANDLE/SOUTH PLAINS/ROLLING PLAINS

CITY           SKY/WX    TMP DP  RH WIND       PRES   REMARKS
LUBBOCK        CLEAR     27  24  89 SW7       30.41R WCI  19
SNYDER         MOSUNNY   24  20  85 S3        30.49R
CHILDRESS      SUNNY     28  22  78 SW8       30.45R WCI  20
SEMINOLE       MOSUNNY   24  23  98 CALM      30.43R FOG
$$

PERMIAN BASIN

CITY           SKY/WX    TMP DP  RH WIND       PRES   REMARKS
MIDLAND        CLEAR     27  22  81 S8        30.43S WCI  19
ODESSA         CLEAR     29  21  72 S9        30.43S WCI  20
WINK           CLEAR     26  21  81 CALM      30.42R
$$

FAR WEST/SOUTHWEST MOUNTAINS/TRANS PECOS

CITY           SKY/WX    TMP DP  RH WIND       PRES   REMARKS
ALPINE         MOSUNNY   33  27  80 SW7       30.44R WCI  26
DRYDEN           N/A     33  27  78 NE7       30.47R WCI  27
EL PASO        CLEAR     30  20  66 NE3       30.38R
FORT STOCKTON  PTCLDY    28  27  96 CALM      30.43R
GUADALUPE PASS NOT AVBL
MARFA          PTCLDY    25  23  93 N6        30.39S WCI  18
PECOS          MOSUNNY   26  24  94 CALM      30.45R FOG
$$

DALLAS/FORT WORTH METROPLEX

CITY           SKY/WX    TMP DP  RH WIND       PRES   REMARKS
DFW AIRPORT    MOSUNNY   30  24  78 SW6       30.57S WCI  24
FTW MEACHAM    SUNNY     29  22  75 CALM      30.57R
DAL-EXECUTIVE  SUNNY     29  23  78 CALM      30.57R
GRAND PRAIRIE  SUNNY     28  25  86 CALM      30.60
ADDISON        SUNNY     30  23  74 CALM      30.58S
MESQUITE       SUNNY     27  27 100 CALM      30.60S
LANCASTER      SUNNY     26  22  83 CALM      30.61R
$$

NORTH CENTRAL TEXAS

CITY           SKY/WX    TMP DP  RH WIND       PRES   REMARKS
SHRMAN/DENISON SUNNY     32  29  88 SW5       30.57S WCI  27
GAINESVILLE    SUNNY     30  21  70 SW6       30.58R WCI  24
BRIDGEPORT     SUNNY     28  25  91 CALM      30.58R
DENTON         SUNNY     28  24  85 CALM      30.58R
WAXAHACHIE     SUNNY     27  25  92 CALM      30.60R
GRANBURY       SUNNY     25  22  88 CALM      30.60R
$$

WESTERN NORTH TEXAS

CITY           SKY/WX    TMP DP  RH WIND       PRES   REMARKS
WICHITA FALLS  SUNNY     29  21  72 SW13      30.52R WCI  19
VERNON         SUNNY     29  21  73 S7        30.51R WCI  21
BRECKENRIDGE   SUNNY     32  22  66 S5        30.54S WCI  27
COMANCHE       SUNNY     29  21  72 S5        30.55S WCI  24
$$

CENTRAL AND SOUTH CENTRAL TEXAS

CITY           SKY/WX    TMP DP  RH WIND       PRES   REMARKS
AUSTIN/BERGSTM PTSUNNY   31  26  82 CALM      30.60R
WACO           SUNNY     26  23  88 CALM      30.61R
HILLSBORO      SUNNY     30  24  77 CALM      30.59S
TEMPLE         SUNNY     27  21  80 NW5       30.58R WCI  21
KILLEEN-GRAY   SUNNY     29  23  78 NW2       30.56R
FORT HOOD      SUNNY     29  22  75 NW2       30.56S
GEORGETOWN     SUNNY     27  23  86 CALM      30.59R
LAGO VISTA     FAIR      31  21  65 CALM      30.57R
SAN MARCOS     SUNNY     30  23  74 N8        30.59R WCI  23
NEW BRAUNFELS  MOSUNNY   32  22  66 NE8       30.58R WCI  25
RANDOLPH AFB   MOSUNNY   32  20  61 NE3       30.58R
SAN ANTONIO    PTSUNNY   34  19  54 NE5       30.59R WCI  30
STINSON        MOSUNNY   34  20  56 NE6       30.59R WCI  29
PLEASANTON     NOT AVBL
LA GRANGE      MOSUNNY   31  26  83 N3        30.58S
GIDDINGS       MOSUNNY   29  25  84 CALM      30.63S
$$

EAST TEXAS

CITY           SKY/WX    TMP DP  RH WIND       PRES   REMARKS
PARIS          SUNNY     28  23  80 W3        30.59S
CLARKSVILLE    NOT AVBL
TYLER          SUNNY     30  25  81 CALM      30.59R
LONGVIEW       SUNNY     28  25  88 CALM      30.60R
PALESTINE      SUNNY     28  27  93 CALM      30.61S
NACOGDOCHES    MOSUNNY   28  23  80 CALM      30.61R
$$

TEXAS HILL COUNTRY AND EDWARDS PLATEAU

CITY           SKY/WX    TMP DP  RH WIND       PRES   REMARKS
LLANO          SUNNY     25  21  86 CALM      30.62R
HORSESHOE BAY  FAIR      27  24  88 CALM      30.58R
KERRVILLE        N/A     25  23  93 N6        30.54S WCI  18
FREDERICKSBRG  MOSUNNY   23  20  89 CALM      30.54R
ROCKSPRINGS    NOT AVBL
HONDO          MOSUNNY   29  25  85 CALM      30.60R
UVALDE         MOSUNNY   32  25  75 E6        30.58R WCI  26
DEL RIO        SUNNY     33  27  78 SE5       30.55R WCI  29
$$

SOUTHEAST TEXAS

CITY           SKY/WX    TMP DP  RH WIND       PRES   REMARKS
COLLEGE STN    MOSUNNY   33  24  69 N8        30.60R WCI  26
CALDWELL       MOSUNNY   30  27  86 N6        30.63S WCI  24
CROCKETT       SUNNY     32  30  93 NE5       30.63R WCI  27
BRENHAM        SUNNY     32  28  83 N5        30.60R WCI  27
HUNTSVILLE     SUNNY     29  25  85 VRB3      30.59R
CONROE         SUNNY     32  24  72 VRB3      30.59R
HOUSTON BUSH   PTSUNNY   33  25  72 VRB7      30.59R WCI  27
HOUSTON HOBBY  MOSUNNY   36  23  59 NE16      30.58R WCI  26
PERLAND        MOSUNNY   37  25  61 NE10G21   30.60R WCI  30
WHARTON        MOSUNNY   34  28  77 N12       30.59R WCI  26
$$

THE UPPER TEXAS COAST

CITY           SKY/WX    TMP DP  RH WIND       PRES   REMARKS
ORANGE         SUNNY     32  19  58 N8        30.59S WCI  25
PORT ARTHUR    SUNNY     33  20  58 NE10      30.58R WCI  25
GALVESTON      SUNNY     37  22  54 NE23G31   30.57R WCI  26
ANGLETON       MOSUNNY   35  25  66 NE12      30.57R WCI  27
BAY CITY       SUNNY     35  29  79 N5        30.58R WCI  31
$$

TEXAS COASTAL BEND, RIO GRANDE PLAINS DEEP SOUTH TEXAS

CITY           SKY/WX    TMP DP  RH WIND       PRES   REMARKS
VICTORIA       MOSUNNY   36  27  69 N8        30.60R WCI  30
BEEVILLE       FAIR      34  28  77 N13       30.59S WCI  25
ROCKPORT       CLOUDY    38  27  64 N14       30.58R WCI  30
PORT ARANSAS   PTSUNNY   39  30  69 N16G22    30.57R WCI  30
PORT LAVACA    SUNNY     34  30  85 N6        30.60R WCI  28
CORPUS CHRISTI CLOUDY    38  27  64 NE17      30.58R WCI  28
KINGSVILLE NAS PTSUNNY   40  29  64 N10       30.59R WCI  33
COTULLA        MOSUNNY   34  24  67 NE8       30.59S WCI  27
LAREDO         CLOUDY    38  22  52 E14       30.60R WCI  30
BROWNSVILLE    CLOUDY    45  34  65 NW12G20   30.53R WCI  39
PORT ISABEL    PTSUNNY   44  34  67 NW17      30.52R WCI  36
HEBBRONVILLE   CLOUDY   N/A N/A N/A NE9       30.58R
MCALLEN        CLOUDY    44  28  53 N10       30.57R WCI  39
WESLACO        CLOUDY    42  28  58 N9        30.57R WCI  37
FALFURRIAS     CLOUDY    40  25  54 N9        30.59R WCI  35
EDINBURG       CLOUDY    44  28  53 N12       30.57R WCI  38
$$


USA.gov is the U.S. government's official web portal to all federal, state and local government web resources and services.